Regional Weather Roundup
Issued by NWS

Home | Current Version | Previous Version | Text Only | Print | Product List | Glossary Off
Versions: 1 2 3 4 5 6 7 8 9 10 11 12 13 14 15 16 17 18 19 20 21 22 23 24 25 26 27 28 29 30 31 32 33 34 35 36 37 38 39 40 41 42 43 44 45 46 47 48 49 50

000
ASUS43 KIND 021059
RWRIN

WEATHER ROUNDUP FOR INDIANA
NATIONAL WEATHER SERVICE INDIANAPOLIS IN
700 AM EDT TUE SEP 02 2014

NOTE: "FAIR" INDICATES FEW OR NO CLOUDS BELOW 12,000 FEET WITH NO
SIGNIFICANT WEATHER AND/OR OBSTRUCTIONS TO VISIBILITY.

* - STATION DOES NOT REPORT WEATHER SUCH AS PRECIPITATION OR FOG.

+ - STATION NOT QUALITY CONTROLLED BY THE NATIONAL WEATHER SERVICE.
    USE DATA WITH CAUTION...ESPECIALLY DEWPOINT AND RELATIVE
    HUMIDITY OBSERVATIONS.

INZ001>003-010>013-019-020-021200-
NORTHWEST INDIANA

CITY           SKY/WX    TMP DP  RH WIND       PRES   REMARKS
GARY /AIRPORT/ MOCLDY    70  68  94 S5        29.88F
KNOX *+        CLOUDY    67  63  85 SW7       29.88F
MONTICELLO +   CLOUDY    67  66  99 S5        29.89S
VALPARAISO     CLOUDY    69  67  93 SW6       29.89F

$$

LMZ046-743>745-021200-
SOUTHERN LAKE MICHIGAN

STATION/POSITION TIME  TEMP WIND        PRES
                       AIR  DIR/SP/G
                 (UTC) (F)  (DEG/KT/KT) (MB)
MICHIGAN CITY    1000   70  200/  9/ 11   N/A

$$

INZ004-005-014>016-021>024-021200-
NORTH CENTRAL INDIANA

CITY           SKY/WX    TMP DP  RH WIND       PRES   REMARKS
GOSHEN         CLOUDY    70  65  84 SW9       29.89S
SOUTH BEND     CLOUDY    69  66  90 SW7       29.88F

$$

INZ006>009-017-018-025>027-021200-
NORTHEAST INDIANA

CITY           SKY/WX    TMP DP  RH WIND       PRES   REMARKS
ANGOLA *+      CLOUDY    70  61  73 SW12      29.90S
FORT WAYNE     CLOUDY    67  65  93 SW7       29.92F

$$

INZ028-029-035-036-043>045-051>053-021200-
WEST CENTRAL INDIANA

CITY           SKY/WX    TMP DP  RH WIND       PRES   REMARKS
GREENCASTLE +  CLOUDY    64  64 100 S7        29.93R
LAFAYETTE      CLOUDY    66  66 100 W5        29.90S
TERRE HAUTE    LGT RAIN  67  65  93 SE6       29.92R

$$

INZ030>032-037>040-046>048-054>057-064-065-021200-
CENTRAL INDIANA

CITY           SKY/WX    TMP DP  RH WIND       PRES   REMARKS
COLUMBUS       LGT RAIN  66  66 100 CALM      30.02  FOG
FRANKFORT +    CLOUDY   N/A N/A N/A CALM      29.89F
INDIANAPOLIS   LGT RAIN  66  64  93 SE13      29.90F
-EAGLE CREEK   LGT RAIN  66  63  90 SE8       29.90F
KOKOMO *+      CLOUDY    66  64  94 S9        29.90S
MT COMFORT *+  CLOUDY    66 N/A N/A S8        29.96F
SHELBYVILLE    RAIN      68  65  90 S7        29.97F

$$

INZ033-034-041-042-049-050-058-059-021200-
EAST CENTRAL INDIANA

CITY           SKY/WX    TMP DP  RH WIND       PRES   REMARKS
MUNCIE         LGT RAIN  67  64  90 S9        29.94F

$$

INZ060-061-067>069-081>083-085>088-021200-
SOUTHWEST INDIANA

CITY           SKY/WX    TMP DP  RH WIND       PRES   REMARKS
EVANSVILLE     TSTM      70  68  93 N5        29.98S FOG

$$

INZ062-063-066-070>080-084-089>092-021200-
SOUTH CENTRAL AND SOUTHEAST INDIANA

CITY           SKY/WX    TMP DP  RH WIND       PRES   REMARKS
BLOOMINGTON    LGT RAIN  66  65  96 SE7       29.96F

$$




USA.gov is the U.S. government's official web portal to all federal, state and local government web resources and services.